User: anonymous
Location: Mauna Kea VIS
(19.7591°N, 155.4561°W)
Time: 04:23:12
(UTC-10:00)
Language:

Cosmos 1624 Rocket - Orbit

View from above orbital plane
View from above orbital plane
View from above satellite
View from above satellite

Ground track
Ground track

The orbit data is extracted from the following two-line orbital elements,

1 15483U 85006B   14208.78814810  .00000096  00000-0  42018-4 0  2753
2 15483 074.0464 131.8013 0018744 009.4604 078.2452 14.35836565545055
Epoch (UTC): 27 July 2014 18:54:55
Eccentricity: 0.0018744
inclination: 74.0464°
perigee height: 759 km
apogee height: 785 km
right ascension of ascending node: 131.8013°
argument of perigee: 9.4604°
revolutions per day: 14.35836565
mean anomaly at epoch: 78.2452°
orbit number at epoch: 54505

The dashed part of the orbit path shows where the satellite is in the earth's shadow,  

DLR